Time,TemperatureF,DewpointF,PressureIn,WindDirection,WindDirectionDegrees,WindSpeedMPH,WindSpeedGustMPH,Humidity,HourlyPrecipIn,Conditions,Clouds,dailyrainin,SolarRadiationWatts/m^2,SoftwareType,DateUTC
2013-01-10 00:01:00,37.5,28.9,30.48,SW,225,1.0,1.0,71,0.00,,,0.05,0,Wunderground v.1.15,2013-01-10 05:01:00,
2013-01-10 00:04:00,37.2,28.7,30.48,WSW,248,1.0,1.0,71,0.00,,,0.00,0,Wunderground v.1.15,2013-01-10 05:04:00,
2013-01-10 00:06:00,37.0,28.5,30.48,West,262,1.0,1.0,71,0.00,,,0.00,0,Wunderground v.1.15,2013-01-10 05:06:00,
2013-01-10 00:12:00,37.3,28.8,30.49,SSW,205,1.0,3.0,71,0.00,,,0.00,0,Wunderground v.1.15,2013-01-10 05:12:00,
2013-01-10 00:14:00,37.4,28.9,30.49,South,184,1.0,3.0,71,0.00,,,0.00,0,Wunderground v.1.15,2013-01-10 05:14:00,
2013-01-10 00:20:00,37.0,28.5,30.49,SSE,159,1.0,1.0,71,0.00,,,0.00,0,Wunderground v.1.15,2013-01-10 05:20:00,
2013-01-10 00:26:00,36.6,28.4,30.49,SW,227,1.0,2.0,72,0.00,,,0.00,0,Wunderground v.1.15,2013-01-10 05:26:00,
2013-01-10 00:32:00,36.8,28.6,30.49,SSW,195,2.0,9.0,72,0.00,,,0.00,0,Wunderground v.1.15,2013-01-10 05:32:00,
2013-01-10 00:38:00,36.5,28.3,30.50,WNW,297,2.0,9.0,72,0.00,,,0.00,0,Wunderground v.1.15,2013-01-10 05:38:00,
2013-01-10 00:44:00,36.8,28.3,30.50,WSW,257,1.0,9.0,71,0.00,,,0.00,0,Wunderground v.1.15,2013-01-10 05:44:00,
2013-01-10 00:50:00,36.7,28.5,30.50,SW,232,1.0,9.0,72,0.00,,,0.00,0,Wunderground v.1.15,2013-01-10 05:50:00,
2013-01-10 00:56:00,36.3,28.1,30.51,SW,225,1.0,9.0,72,0.00,,,0.00,0,Wunderground v.1.15,2013-01-10 05:56:00,
2013-01-10 01:02:00,36.2,28.0,30.51,SSW,206,2.0,9.0,72,0.00,,,0.00,0,Wunderground v.1.15,2013-01-10 06:02:00,
2013-01-10 01:08:00,35.5,28.0,30.51,WSW,253,2.0,9.0,74,0.00,,,0.00,0,Wunderground v.1.15,2013-01-10 06:08:00,
2013-01-10 01:14:00,35.7,28.2,30.52,SSW,207,1.0,9.0,74,0.00,,,0.00,0,Wunderground v.1.15,2013-01-10 06:14:00,
2013-01-10 01:20:00,36.0,28.2,30.52,WSW,244,1.0,9.0,73,0.00,,,0.00,0,Wunderground v.1.15,2013-01-10 06:20:00,
2013-01-10 01:26:00,36.1,28.3,30.52,WSW,243,1.0,9.0,73,0.00,,,0.00,0,Wunderground v.1.15,2013-01-10 06:26:00,
2013-01-10 01:32:00,36.1,28.3,30.52,WSW,248,1.0,9.0,73,0.00,,,0.00,0,Wunderground v.1.15,2013-01-10 06:32:00,
2013-01-10 01:38:00,35.9,28.1,30.52,West,277,1.0,9.0,73,0.00,,,0.00,0,Wunderground v.1.15,2013-01-10 06:38:00,
2013-01-10 01:44:00,34.9,27.8,30.53,WNW,295,2.0,9.0,75,0.00,,,0.00,0,Wunderground v.1.15,2013-01-10 06:44:00,
2013-01-10 01:50:00,35.0,27.9,30.53,West,270,1.0,9.0,75,0.00,,,0.00,0,Wunderground v.1.15,2013-01-10 06:50:00,
2013-01-10 01:56:00,34.9,27.8,30.53,West,264,1.0,9.0,75,0.00,,,0.00,0,Wunderground v.1.15,2013-01-10 06:56:00,
2013-01-10 02:02:00,35.1,28.0,30.54,WSW,237,2.0,4.0,75,0.00,,,0.00,0,Wunderground v.1.15,2013-01-10 07:02:00,
2013-01-10 02:08:00,35.2,28.1,30.54,WSW,243,2.0,9.0,75,0.00,,,0.00,0,Wunderground v.1.15,2013-01-10 07:08:00,
2013-01-10 02:14:00,35.1,28.0,30.54,WNW,283,2.0,9.0,75,0.00,,,0.00,0,Wunderground v.1.15,2013-01-10 07:14:00,
2013-01-10 02:20:00,35.1,28.0,30.54,West,279,2.0,9.0,75,0.00,,,0.00,0,Wunderground v.1.15,2013-01-10 07:20:00,
2013-01-10 02:26:00,35.0,27.9,30.54,NNW,347,2.0,9.0,75,0.00,,,0.00,0,Wunderground v.1.15,2013-01-10 07:26:00,
2013-01-10 02:32:00,35.0,27.9,30.55,West,265,2.0,9.0,75,0.00,,,0.00,0,Wunderground v.1.15,2013-01-10 07:32:00,
2013-01-10 02:38:00,35.1,28.0,30.55,West,276,2.0,9.0,75,0.00,,,0.00,0,Wunderground v.1.15,2013-01-10 07:38:00,
2013-01-10 02:44:00,35.0,27.9,30.54,WNW,287,2.0,9.0,75,0.00,,,0.00,0,Wunderground v.1.15,2013-01-10 07:44:00,
2013-01-10 02:50:00,34.5,27.7,30.54,WNW,294,1.0,9.0,76,0.00,,,0.00,0,Wunderground v.1.15,2013-01-10 07:50:00,
2013-01-10 02:56:00,34.4,27.6,30.55,WNW,285,1.0,9.0,76,0.00,,,0.00,0,Wunderground v.1.15,2013-01-10 07:56:00,
2013-01-10 03:02:00,34.4,27.6,30.54,West,271,1.0,9.0,76,0.00,,,0.00,0,Wunderground v.1.15,2013-01-10 08:02:00,
2013-01-10 03:08:00,34.3,27.8,30.54,WNW,286,2.0,9.0,77,0.00,,,0.00,0,Wunderground v.1.15,2013-01-10 08:08:00,
2013-01-10 03:14:00,33.8,27.7,30.54,West,271,1.0,9.0,78,0.00,,,0.00,0,Wunderground v.1.15,2013-01-10 08:14:00,
2013-01-10 03:20:00,33.8,27.7,30.54,WNW,303,1.0,1.0,78,0.00,,,0.00,0,Wunderground v.1.15,2013-01-10 08:20:00,
2013-01-10 03:26:00,33.3,27.2,30.54,WNW,289,1.0,9.0,78,0.00,,,0.00,0,Wunderground v.1.15,2013-01-10 08:26:00,
2013-01-10 03:32:00,32.7,27.2,30.54,WNW,303,1.0,9.0,80,0.00,,,0.00,0,Wunderground v.1.15,2013-01-10 08:32:00,
2013-01-10 03:38:00,32.7,27.2,30.54,West,281,1.0,9.0,80,0.00,,,0.00,0,Wunderground v.1.15,2013-01-10 08:38:00,
2013-01-10 03:44:00,32.8,27.3,30.55,NW,313,1.0,9.0,80,0.00,,,0.00,0,Wunderground v.1.15,2013-01-10 08:44:00,
2013-01-10 03:50:00,31.8,26.9,30.54,NW,313,0.0,9.0,82,0.00,,,0.00,0,Wunderground v.1.15,2013-01-10 08:50:00,
2013-01-10 03:56:00,31.2,26.6,30.55,NW,313,0.0,9.0,83,0.00,,,0.00,0,Wunderground v.1.15,2013-01-10 08:56:00,
2013-01-10 04:02:00,31.0,26.7,30.55,NW,313,0.0,9.0,84,0.00,,,0.00,0,Wunderground v.1.15,2013-01-10 09:02:00,
2013-01-10 04:08:00,30.2,25.9,30.55,NW,313,0.0,9.0,84,0.00,,,0.00,0,Wunderground v.1.15,2013-01-10 09:08:00,
2013-01-10 04:14:00,30.1,26.4,30.55,NW,313,0.0,9.0,86,0.00,,,0.00,0,Wunderground v.1.15,2013-01-10 09:14:00,
2013-01-10 04:20:00,29.7,26.0,30.55,NW,313,0.0,9.0,86,0.00,,,0.00,0,Wunderground v.1.15,2013-01-10 09:20:00,
2013-01-10 04:26:00,29.8,26.4,30.56,NW,314,0.0,9.0,87,0.00,,,0.00,0,Wunderground v.1.15,2013-01-10 09:26:00,
2013-01-10 04:32:00,29.8,26.4,30.56,NW,314,0.0,9.0,87,0.00,,,0.00,0,Wunderground v.1.15,2013-01-10 09:32:00,
2013-01-10 04:38:00,29.8,26.4,30.56,NW,314,0.0,9.0,87,0.00,,,0.00,0,Wunderground v.1.15,2013-01-10 09:38:00,
2013-01-10 04:44:00,29.2,25.8,30.56,NW,314,0.0,9.0,87,0.00,,,0.00,0,Wunderground v.1.15,2013-01-10 09:44:00,
2013-01-10 04:50:00,28.9,25.8,30.56,NW,314,0.0,9.0,88,0.00,,,0.00,0,Wunderground v.1.15,2013-01-10 09:50:00,
2013-01-10 04:56:00,28.5,25.4,30.56,NW,314,0.0,9.0,88,0.00,,,0.00,0,Wunderground v.1.15,2013-01-10 09:56:00,
2013-01-10 05:02:00,28.1,25.0,30.57,NW,314,0.0,9.0,88,0.00,,,0.00,0,Wunderground v.1.15,2013-01-10 10:02:00,
2013-01-10 05:08:00,27.7,24.6,30.57,NW,314,0.0,9.0,88,0.00,,,0.00,0,Wunderground v.1.15,2013-01-10 10:08:00,
2013-01-10 05:14:00,27.2,24.4,30.57,NW,314,0.0,9.0,89,0.00,,,0.00,0,Wunderground v.1.15,2013-01-10 10:14:00,
2013-01-10 05:20:00,27.0,24.5,30.57,NW,314,0.0,9.0,90,0.00,,,0.00,0,Wunderground v.1.15,2013-01-10 10:20:00,
2013-01-10 05:26:00,26.9,24.4,30.57,NW,314,0.0,9.0,90,0.00,,,0.00,0,Wunderground v.1.15,2013-01-10 10:26:00,
2013-01-10 05:32:00,26.7,24.2,30.57,NW,314,0.0,9.0,90,0.00,,,0.00,0,Wunderground v.1.15,2013-01-10 10:32:00,
2013-01-10 05:38:00,26.5,24.2,30.58,NW,314,0.0,9.0,91,0.00,,,0.00,0,Wunderground v.1.15,2013-01-10 10:38:00,
2013-01-10 05:44:00,26.6,24.3,30.58,NW,314,0.0,9.0,91,0.00,,,0.00,0,Wunderground v.1.15,2013-01-10 10:44:00,
2013-01-10 05:50:00,26.4,23.9,30.59,NW,314,0.0,9.0,90,0.00,,,0.00,0,Wunderground v.1.15,2013-01-10 10:50:00,
2013-01-10 05:56:00,26.2,23.9,30.59,NW,314,0.0,9.0,91,0.00,,,0.00,0,Wunderground v.1.15,2013-01-10 10:56:00,
2013-01-10 06:02:00,26.3,24.3,30.59,NW,314,0.0,9.0,92,0.00,,,0.00,0,Wunderground v.1.15,2013-01-10 11:02:00,
2013-01-10 06:08:00,26.2,23.9,30.60,NW,314,0.0,9.0,91,0.00,,,0.00,0,Wunderground v.1.15,2013-01-10 11:08:00,
2013-01-10 06:14:00,25.9,23.9,30.60,NW,314,0.0,9.0,92,0.00,,,0.00,0,Wunderground v.1.15,2013-01-10 11:14:00,
2013-01-10 06:20:00,25.8,23.8,30.61,NW,314,0.0,9.0,92,0.00,,,0.00,0,Wunderground v.1.15,2013-01-10 11:20:00,
2013-01-10 06:26:00,25.8,23.8,30.61,NW,314,0.0,9.0,92,0.00,,,0.00,0,Wunderground v.1.15,2013-01-10 11:26:00,
2013-01-10 06:32:00,25.2,23.2,30.61,NW,314,0.0,9.0,92,0.00,,,0.00,0,Wunderground v.1.15,2013-01-10 11:32:00,
2013-01-10 06:38:00,25.3,23.6,30.62,NW,314,0.0,9.0,93,0.00,,,0.00,0,Wunderground v.1.15,2013-01-10 11:38:00,
2013-01-10 06:44:00,25.5,23.8,30.62,NW,314,0.0,9.0,93,0.00,,,0.00,0,Wunderground v.1.15,2013-01-10 11:44:00,
2013-01-10 06:50:00,25.6,23.9,30.62,NW,314,0.0,9.0,93,0.00,,,0.00,0,Wunderground v.1.15,2013-01-10 11:50:00,
2013-01-10 06:56:00,25.4,23.7,30.63,NW,314,0.0,9.0,93,0.00,,,0.00,0,Wunderground v.1.15,2013-01-10 11:56:00,
2013-01-10 07:02:00,25.1,23.4,30.62,NW,314,0.0,9.0,93,0.00,,,0.00,0,Wunderground v.1.15,2013-01-10 12:02:00,
2013-01-10 07:08:00,24.6,22.9,30.62,NW,314,0.0,9.0,93,0.00,,,0.00,0,Wunderground v.1.15,2013-01-10 12:08:00,
2013-01-10 07:14:00,24.3,22.6,30.63,NW,314,0.0,9.0,93,0.00,,,0.00,0,Wunderground v.1.15,2013-01-10 12:14:00,
2013-01-10 07:20:00,24.3,22.8,30.63,NW,314,0.0,9.0,94,0.00,,,0.00,0,Wunderground v.1.15,2013-01-10 12:20:00,
2013-01-10 07:26:00,24.5,23.0,30.63,NW,314,0.0,9.0,94,0.00,,,0.00,0,Wunderground v.1.15,2013-01-10 12:26:00,
2013-01-10 07:32:00,24.5,23.0,30.64,NW,314,0.0,9.0,94,0.00,,,0.00,0,Wunderground v.1.15,2013-01-10 12:32:00,
2013-01-10 07:38:00,24.2,22.7,30.64,NW,314,0.0,9.0,94,0.00,,,0.00,0,Wunderground v.1.15,2013-01-10 12:38:00,
2013-01-10 07:44:00,24.5,23.3,30.65,NW,314,0.0,9.0,95,0.00,,,0.00,5,Wunderground v.1.15,2013-01-10 12:44:00,
2013-01-10 07:50:00,24.7,23.2,30.65,NW,314,0.0,9.0,94,0.00,,,0.00,11,Wunderground v.1.15,2013-01-10 12:50:00,
2013-01-10 07:56:00,24.5,23.0,30.66,NW,314,0.0,9.0,94,0.00,,,0.00,14,Wunderground v.1.15,2013-01-10 12:56:00,
2013-01-10 08:02:00,24.7,23.2,30.66,NW,314,0.0,9.0,94,0.00,,,0.00,23,Wunderground v.1.15,2013-01-10 13:02:00,
2013-01-10 08:08:00,25.1,23.6,30.66,NW,314,0.0,9.0,94,0.00,,,0.00,28,Wunderground v.1.15,2013-01-10 13:08:00,
2013-01-10 08:14:00,24.9,23.4,30.66,NW,314,0.0,9.0,94,0.00,,,0.00,35,Wunderground v.1.15,2013-01-10 13:14:00,
2013-01-10 08:20:00,25.1,23.6,30.67,NW,314,0.0,9.0,94,0.00,,,0.00,42,Wunderground v.1.15,2013-01-10 13:20:00,
2013-01-10 08:26:00,25.5,24.0,30.67,NW,314,0.0,9.0,94,0.00,,,0.00,58,Wunderground v.1.15,2013-01-10 13:26:00,
2013-01-10 08:32:00,25.2,23.5,30.67,NW,314,0.0,9.0,93,0.00,,,0.00,70,Wunderground v.1.15,2013-01-10 13:32:00,
2013-01-10 08:38:00,25.5,24.0,30.67,NW,314,0.0,9.0,94,0.00,,,0.00,81,Wunderground v.1.15,2013-01-10 13:38:00,
2013-01-10 08:44:00,25.4,23.7,30.67,NW,314,0.0,9.0,93,0.00,,,0.00,90,Wunderground v.1.15,2013-01-10 13:44:00,
2013-01-10 08:50:00,25.7,24.0,30.67,NW,314,0.0,9.0,93,0.00,,,0.00,100,Wunderground v.1.15,2013-01-10 13:50:00,
2013-01-10 08:56:00,25.8,24.1,30.67,NW,314,0.0,9.0,93,0.00,,,0.00,120,Wunderground v.1.15,2013-01-10 13:56:00,
2013-01-10 09:02:00,26.9,25.4,30.67,NW,314,0.0,9.0,94,0.00,,,0.00,163,Wunderground v.1.15,2013-01-10 14:02:00,
2013-01-10 09:08:00,27.5,25.5,30.67,NW,314,0.0,9.0,92,0.00,,,0.00,153,Wunderground v.1.15,2013-01-10 14:08:00,
2013-01-10 09:14:00,27.9,25.6,30.67,NW,314,0.0,9.0,91,0.00,,,0.00,171,Wunderground v.1.15,2013-01-10 14:14:00,
2013-01-10 09:20:00,28.3,25.7,30.67,NW,314,0.0,9.0,90,0.00,,,0.00,169,Wunderground v.1.15,2013-01-10 14:20:00,
2013-01-10 09:26:00,29.0,26.2,30.68,NW,314,0.0,9.0,89,0.00,,,0.00,223,Wunderground v.1.15,2013-01-10 14:26:00,
2013-01-10 09:32:00,29.6,27.0,30.68,NW,314,0.0,9.0,90,0.00,,,0.00,158,Wunderground v.1.15,2013-01-10 14:32:00,
2013-01-10 09:38:00,31.0,27.3,30.68,NW,314,0.0,9.0,86,0.00,,,0.00,253,Wunderground v.1.15,2013-01-10 14:38:00,
2013-01-10 09:44:00,30.6,26.9,30.68,NW,314,0.0,9.0,86,0.00,,,0.00,239,Wunderground v.1.15,2013-01-10 14:44:00,
2013-01-10 09:50:00,31.2,27.5,30.67,NW,314,0.0,9.0,86,0.00,,,0.00,308,Wunderground v.1.15,2013-01-10 14:50:00,
2013-01-10 09:56:00,31.6,27.6,30.67,WSW,240,0.0,9.0,85,0.00,,,0.00,250,Wunderground v.1.15,2013-01-10 14:56:00,
2013-01-10 10:02:00,32.0,27.7,30.67,SW,226,0.0,9.0,84,0.00,,,0.00,272,Wunderground v.1.15,2013-01-10 15:02:00,
2013-01-10 10:08:00,32.2,27.9,30.68,SSW,195,1.0,9.0,84,0.00,,,0.00,309,Wunderground v.1.15,2013-01-10 15:08:00,
2013-01-10 10:14:00,32.5,27.9,30.68,SSW,206,1.0,9.0,83,0.00,,,0.00,248,Wunderground v.1.15,2013-01-10 15:14:00,
2013-01-10 10:20:00,33.1,28.2,30.68,SSW,206,1.0,1.0,82,0.00,,,0.00,271,Wunderground v.1.15,2013-01-10 15:20:00,
2013-01-10 10:26:00,33.8,28.3,30.68,SSW,206,0.0,9.0,80,0.00,,,0.00,332,Wunderground v.1.15,2013-01-10 15:26:00,
2013-01-10 10:32:00,34.7,28.9,30.67,SSW,206,0.0,9.0,79,0.00,,,0.00,306,Wunderground v.1.15,2013-01-10 15:32:00,
2013-01-10 10:38:00,34.8,28.6,30.67,SSW,206,0.0,9.0,78,0.00,,,0.00,302,Wunderground v.1.15,2013-01-10 15:38:00,
2013-01-10 10:44:00,35.8,29.0,30.67,SSW,206,0.0,9.0,76,0.00,,,0.00,267,Wunderground v.1.15,2013-01-10 15:44:00,
2013-01-10 10:50:00,36.0,29.5,30.67,SSW,206,0.0,9.0,77,0.00,,,0.00,427,Wunderground v.1.15,2013-01-10 15:50:00,
2013-01-10 10:56:00,36.8,29.6,30.66,ESE,103,0.0,9.0,75,0.00,,,0.00,313,Wunderground v.1.15,2013-01-10 15:56:00,
2013-01-10 11:02:00,37.1,29.6,30.66,ENE,78,0.0,9.0,74,0.00,,,0.00,327,Wunderground v.1.15,2013-01-10 16:02:00,
2013-01-10 11:08:00,37.6,29.4,30.65,ENE,61,0.0,9.0,72,0.00,,,0.00,278,Wunderground v.1.15,2013-01-10 16:08:00,
2013-01-10 11:14:00,37.9,29.7,30.65,ENE,63,0.0,9.0,72,0.00,,,0.00,279,Wunderground v.1.15,2013-01-10 16:14:00,
2013-01-10 11:20:00,37.8,29.2,30.65,NE,40,1.0,1.0,71,0.00,,,0.00,272,Wunderground v.1.15,2013-01-10 16:20:00,
2013-01-10 11:26:00,38.1,29.5,30.64,NNE,30,1.0,9.0,71,0.00,,,0.00,304,Wunderground v.1.15,2013-01-10 16:26:00,
2013-01-10 11:32:00,38.3,29.4,30.64,North,5,0.0,9.0,70,0.00,,,0.00,302,Wunderground v.1.15,2013-01-10 16:32:00,
2013-01-10 11:38:00,38.5,29.9,30.63,NNE,13,0.0,9.0,71,0.00,,,0.00,329,Wunderground v.1.15,2013-01-10 16:38:00,
2013-01-10 11:44:00,38.6,29.3,30.63,NW,310,0.0,9.0,69,0.00,,,0.00,295,Wunderground v.1.15,2013-01-10 16:44:00,
2013-01-10 11:50:00,38.6,29.3,30.63,North,360,1.0,1.0,69,0.00,,,0.00,311,Wunderground v.1.15,2013-01-10 16:50:00,
2013-01-10 11:56:00,38.8,29.1,30.63,ENE,67,0.0,9.0,68,0.00,,,0.00,244,Wunderground v.1.15,2013-01-10 16:56:00,
2013-01-10 12:02:00,38.7,29.4,30.62,NE,47,0.0,9.0,69,0.00,,,0.00,315,Wunderground v.1.15,2013-01-10 17:02:00,
2013-01-10 12:08:00,38.8,29.1,30.62,NE,47,0.0,9.0,68,0.00,,,0.00,338,Wunderground v.1.15,2013-01-10 17:08:00,
2013-01-10 12:14:00,39.3,29.3,30.61,ENE,74,1.0,9.0,67,0.00,,,0.00,339,Wunderground v.1.15,2013-01-10 17:14:00,
2013-01-10 12:20:00,39.5,29.4,30.61,NE,53,1.0,9.0,67,0.00,,,0.00,313,Wunderground v.1.15,2013-01-10 17:20:00,
2013-01-10 12:26:00,39.4,29.3,30.61,WNW,282,1.0,9.0,67,0.00,,,0.00,306,Wunderground v.1.15,2013-01-10 17:26:00,
2013-01-10 12:32:00,39.2,29.2,30.61,South,190,1.0,9.0,67,0.00,,,0.00,327,Wunderground v.1.15,2013-01-10 17:32:00,
2013-01-10 12:38:00,39.4,29.3,30.61,SSE,150,1.0,9.0,67,0.00,,,0.00,304,Wunderground v.1.15,2013-01-10 17:38:00,
2013-01-10 12:44:00,39.3,28.9,30.61,WSW,249,1.0,9.0,66,0.00,,,0.00,279,Wunderground v.1.15,2013-01-10 17:44:00,
2013-01-10 12:50:00,39.2,28.8,30.60,SSW,193,2.0,2.0,66,0.00,,,0.00,527,Wunderground v.1.15,2013-01-10 17:50:00,
2013-01-10 12:56:00,39.5,29.1,30.60,SSW,202,2.0,9.0,66,0.00,,,0.00,443,Wunderground v.1.15,2013-01-10 17:56:00,
2013-01-10 13:02:00,39.7,28.9,30.60,SE,140,2.0,9.0,65,0.00,,,0.00,364,Wunderground v.1.15,2013-01-10 18:02:00,
2013-01-10 13:08:00,40.3,29.1,30.59,SSW,203,2.0,9.0,64,0.00,,,0.00,605,Wunderground v.1.15,2013-01-10 18:08:00,
2013-01-10 13:14:00,40.6,29.4,30.59,SSW,192,1.0,9.0,64,0.00,,,0.00,592,Wunderground v.1.15,2013-01-10 18:14:00,
2013-01-10 13:20:00,40.4,29.6,30.59,SSE,155,2.0,2.0,65,0.00,,,0.00,279,Wunderground v.1.15,2013-01-10 18:20:00,
2013-01-10 13:26:00,40.4,29.2,30.59,South,184,2.0,9.0,64,0.00,,,0.00,396,Wunderground v.1.15,2013-01-10 18:26:00,
2013-01-10 13:32:00,40.2,29.4,30.60,SSW,193,1.0,2.0,65,0.00,,,0.00,248,Wunderground v.1.15,2013-01-10 18:32:00,
2013-01-10 13:38:00,40.5,29.7,30.59,South,171,1.0,9.0,65,0.00,,,0.00,388,Wunderground v.1.15,2013-01-10 18:38:00,
2013-01-10 13:44:00,41.0,29.4,30.59,SSW,209,1.0,9.0,63,0.00,,,0.00,478,Wunderground v.1.15,2013-01-10 18:44:00,
2013-01-10 13:50:00,40.8,29.2,30.59,SSW,195,1.0,9.0,63,0.00,,,0.00,452,Wunderground v.1.15,2013-01-10 18:50:00,
2013-01-10 13:56:00,40.9,28.9,30.59,WSW,237,2.0,9.0,62,0.00,,,0.00,480,Wunderground v.1.15,2013-01-10 18:56:00,
2013-01-10 14:02:00,41.2,29.5,30.59,South,184,2.0,9.0,63,0.00,,,0.00,199,Wunderground v.1.15,2013-01-10 19:02:00,
2013-01-10 14:08:00,41.0,29.0,30.59,SW,219,3.0,9.0,62,0.00,,,0.00,323,Wunderground v.1.15,2013-01-10 19:08:00,
2013-01-10 14:14:00,41.0,29.0,30.59,South,178,2.0,9.0,62,0.00,,,0.00,322,Wunderground v.1.15,2013-01-10 19:14:00,
2013-01-10 14:20:00,40.8,28.8,30.60,SSW,196,1.0,9.0,62,0.00,,,0.00,193,Wunderground v.1.15,2013-01-10 19:20:00,
2013-01-10 14:26:00,41.2,28.8,30.60,SW,219,1.0,9.0,61,0.00,,,0.00,318,Wunderground v.1.15,2013-01-10 19:26:00,
2013-01-10 14:32:00,41.5,28.6,30.59,SSW,194,2.0,9.0,60,0.00,,,0.00,271,Wunderground v.1.15,2013-01-10 19:32:00,
2013-01-10 14:38:00,41.5,29.0,30.59,SSW,200,2.0,9.0,61,0.00,,,0.00,288,Wunderground v.1.15,2013-01-10 19:38:00,
2013-01-10 14:44:00,41.5,29.0,30.60,SSE,168,2.0,9.0,61,0.00,,,0.00,151,Wunderground v.1.15,2013-01-10 19:44:00,
2013-01-10 14:50:00,41.2,29.2,30.59,SSW,211,2.0,2.0,62,0.00,,,0.00,100,Wunderground v.1.15,2013-01-10 19:50:00,
2013-01-10 14:56:00,41.0,28.6,30.59,SSW,212,1.0,9.0,61,0.00,,,0.00,153,Wunderground v.1.15,2013-01-10 19:56:00,
2013-01-10 15:02:00,41.2,28.8,30.58,SSW,212,1.0,2.0,61,0.00,,,0.00,163,Wunderground v.1.15,2013-01-10 20:02:00,
2013-01-10 15:08:00,41.0,29.0,30.58,SW,222,1.0,9.0,62,0.00,,,0.00,204,Wunderground v.1.15,2013-01-10 20:08:00,
2013-01-10 15:14:00,40.9,28.9,30.58,SSE,168,1.0,9.0,62,0.00,,,0.00,102,Wunderground v.1.15,2013-01-10 20:14:00,
2013-01-10 15:20:00,40.9,28.5,30.58,South,176,2.0,2.0,61,0.00,,,0.00,114,Wunderground v.1.15,2013-01-10 20:20:00,
2013-01-10 15:26:00,40.9,28.5,30.58,SSW,198,1.0,9.0,61,0.00,,,0.00,109,Wunderground v.1.15,2013-01-10 20:26:00,
2013-01-10 15:32:00,41.0,28.6,30.58,SSW,198,0.0,9.0,61,0.00,,,0.00,88,Wunderground v.1.15,2013-01-10 20:32:00,
2013-01-10 15:38:00,40.9,28.1,30.59,SW,233,1.0,9.0,60,0.00,,,0.00,102,Wunderground v.1.15,2013-01-10 20:38:00,
2013-01-10 15:44:00,40.9,28.5,30.59,SSW,212,1.0,9.0,61,0.00,,,0.00,83,Wunderground v.1.15,2013-01-10 20:44:00,
2013-01-10 15:50:00,40.9,28.5,30.59,SSW,212,0.0,9.0,61,0.00,,,0.00,90,Wunderground v.1.15,2013-01-10 20:50:00,
2013-01-10 15:56:00,40.7,28.3,30.58,SSW,212,0.0,9.0,61,0.00,,,0.00,104,Wunderground v.1.15,2013-01-10 20:56:00,
2013-01-10 16:02:00,40.9,28.9,30.58,SSW,212,0.0,9.0,62,0.00,,,0.00,98,Wunderground v.1.15,2013-01-10 21:02:00,
2013-01-10 16:08:00,41.0,28.2,30.58,SSW,212,0.0,9.0,60,0.00,,,0.00,91,Wunderground v.1.15,2013-01-10 21:08:00,
2013-01-10 16:14:00,41.5,28.6,30.57,SSW,212,0.0,9.0,60,0.00,,,0.00,93,Wunderground v.1.15,2013-01-10 21:14:00,
2013-01-10 16:20:00,41.4,28.1,30.57,SSW,212,0.0,9.0,59,0.00,,,0.00,62,Wunderground v.1.15,2013-01-10 21:20:00,
2013-01-10 16:26:00,41.2,28.8,30.57,SSW,192,0.0,9.0,61,0.00,,,0.00,46,Wunderground v.1.15,2013-01-10 21:26:00,
2013-01-10 16:32:00,40.5,29.3,30.57,SSW,192,0.0,9.0,64,0.00,,,0.00,19,Wunderground v.1.15,2013-01-10 21:32:00,
2013-01-10 16:38:00,39.7,28.9,30.57,SSW,192,0.0,9.0,65,0.00,,,0.00,16,Wunderground v.1.15,2013-01-10 21:38:00,
2013-01-10 16:44:00,38.7,28.7,30.56,SSW,192,0.0,9.0,67,0.00,,,0.00,14,Wunderground v.1.15,2013-01-10 21:44:00,
2013-01-10 16:50:00,38.1,28.8,30.56,SSW,192,0.0,9.0,69,0.00,,,0.00,11,Wunderground v.1.15,2013-01-10 21:50:00,
2013-01-10 16:56:00,36.8,29.3,30.57,SSW,192,0.0,9.0,74,0.00,,,0.00,7,Wunderground v.1.15,2013-01-10 21:56:00,
2013-01-10 17:04:00,36.1,28.6,30.56,SSW,192,0.0,9.0,74,0.00,,,0.00,0,Wunderground v.1.15,2013-01-10 22:04:00,
2013-01-10 17:10:00,35.4,28.9,30.57,SSW,192,0.0,9.0,77,0.00,,,0.00,0,Wunderground v.1.15,2013-01-10 22:10:00,
2013-01-10 17:16:00,35.1,28.9,30.57,SSW,192,0.0,9.0,78,0.00,,,0.00,0,Wunderground v.1.15,2013-01-10 22:16:00,
2013-01-10 17:22:00,34.2,28.7,30.57,SSW,192,0.0,9.0,80,0.00,,,0.00,0,Wunderground v.1.15,2013-01-10 22:22:00,
2013-01-10 17:28:00,34.1,28.9,30.57,SSW,192,0.0,9.0,81,0.00,,,0.00,0,Wunderground v.1.15,2013-01-10 22:28:00,
2013-01-10 17:34:00,33.8,28.6,30.57,SSW,192,0.0,9.0,81,0.00,,,0.00,0,Wunderground v.1.15,2013-01-10 22:34:00,
2013-01-10 17:40:00,33.5,28.3,30.57,SSW,192,0.0,9.0,81,0.00,,,0.00,0,Wunderground v.1.15,2013-01-10 22:40:00,
2013-01-10 17:46:00,33.2,28.3,30.57,SSW,192,0.0,9.0,82,0.00,,,0.00,0,Wunderground v.1.15,2013-01-10 22:46:00,
2013-01-10 17:52:00,32.8,28.2,30.57,SSW,192,0.0,9.0,83,0.00,,,0.00,0,Wunderground v.1.15,2013-01-10 22:52:00,
2013-01-10 17:58:00,32.5,27.9,30.57,SSW,192,0.0,9.0,83,0.00,,,0.00,0,Wunderground v.1.15,2013-01-10 22:58:00,
2013-01-10 18:04:00,32.6,28.0,30.57,SSW,192,0.0,9.0,83,0.00,,,0.00,0,Wunderground v.1.15,2013-01-10 23:04:00,
2013-01-10 18:10:00,32.2,27.9,30.57,SSW,192,0.0,9.0,84,0.00,,,0.00,0,Wunderground v.1.15,2013-01-10 23:10:00,
2013-01-10 18:16:00,32.0,28.0,30.57,SSW,192,0.0,9.0,85,0.00,,,0.00,0,Wunderground v.1.15,2013-01-10 23:16:00,
2013-01-10 18:22:00,31.7,27.7,30.57,SSW,192,0.0,9.0,85,0.00,,,0.00,0,Wunderground v.1.15,2013-01-10 23:22:00,
2013-01-10 18:28:00,31.9,27.9,30.56,SSW,192,0.0,9.0,85,0.00,,,0.00,0,Wunderground v.1.15,2013-01-10 23:28:00,
2013-01-10 18:34:00,32.0,28.0,30.57,SSW,192,0.0,9.0,85,0.00,,,0.00,0,Wunderground v.1.15,2013-01-10 23:34:00,
2013-01-10 18:40:00,31.7,28.0,30.57,SSW,192,0.0,9.0,86,0.00,,,0.00,0,Wunderground v.1.15,2013-01-10 23:40:00,
2013-01-10 18:46:00,31.6,27.9,30.58,SSW,192,0.0,9.0,86,0.00,,,0.00,0,Wunderground v.1.15,2013-01-10 23:46:00,
2013-01-10 18:52:00,31.7,28.0,30.58,SSW,192,0.0,9.0,86,0.00,,,0.00,0,Wunderground v.1.15,2013-01-10 23:52:00,
2013-01-10 18:58:00,31.8,28.1,30.58,SSW,192,0.0,9.0,86,0.00,,,0.00,0,Wunderground v.1.15,2013-01-10 23:58:00,
2013-01-10 19:04:00,31.9,28.5,30.58,SSW,192,0.0,9.0,87,0.00,,,0.00,0,Wunderground v.1.15,2013-01-11 00:04:00,
2013-01-10 19:10:00,31.6,27.9,30.58,SSW,192,0.0,9.0,86,0.00,,,0.00,0,Wunderground v.1.15,2013-01-11 00:10:00,
2013-01-10 19:16:00,31.6,28.2,30.58,SSW,192,0.0,9.0,87,0.00,,,0.00,0,Wunderground v.1.15,2013-01-11 00:16:00,
2013-01-10 19:22:00,31.5,28.1,30.58,SSW,192,0.0,9.0,87,0.00,,,0.00,0,Wunderground v.1.15,2013-01-11 00:22:00,
2013-01-10 19:28:00,31.4,28.0,30.57,SSW,192,0.0,9.0,87,0.00,,,0.00,0,Wunderground v.1.15,2013-01-11 00:28:00,
2013-01-10 19:34:00,31.5,28.4,30.56,SSW,192,0.0,9.0,88,0.00,,,0.00,0,Wunderground v.1.15,2013-01-11 00:34:00,
2013-01-10 19:40:00,31.5,28.1,30.57,SSW,192,0.0,9.0,87,0.00,,,0.00,0,Wunderground v.1.15,2013-01-11 00:40:00,
2013-01-10 19:46:00,31.4,28.3,30.57,SSW,192,0.0,9.0,88,0.00,,,0.00,0,Wunderground v.1.15,2013-01-11 00:46:00,
2013-01-10 19:52:00,31.3,28.2,30.57,SSW,192,0.0,9.0,88,0.00,,,0.00,0,Wunderground v.1.15,2013-01-11 00:52:00,
2013-01-10 19:58:00,31.1,28.0,30.56,SSW,192,0.0,9.0,88,0.00,,,0.00,0,Wunderground v.1.15,2013-01-11 00:58:00,
2013-01-10 20:04:00,31.1,28.2,30.56,SSW,192,0.0,9.0,89,0.00,,,0.00,0,Wunderground v.1.15,2013-01-11 01:04:00,
2013-01-10 20:10:00,31.0,28.1,30.56,SSW,192,0.0,9.0,89,0.00,,,0.00,0,Wunderground v.1.15,2013-01-11 01:10:00,
2013-01-10 20:16:00,31.0,28.1,30.56,SSW,192,0.0,9.0,89,0.00,,,0.00,0,Wunderground v.1.15,2013-01-11 01:16:00,
2013-01-10 20:22:00,31.0,28.1,30.56,SSW,192,0.0,9.0,89,0.00,,,0.00,0,Wunderground v.1.15,2013-01-11 01:22:00,
2013-01-10 20:28:00,30.8,27.9,30.56,SSW,192,0.0,9.0,89,0.00,,,0.00,0,Wunderground v.1.15,2013-01-11 01:28:00,
2013-01-10 20:34:00,30.8,27.9,30.56,SSW,192,0.0,9.0,89,0.00,,,0.00,0,Wunderground v.1.15,2013-01-11 01:34:00,
2013-01-10 20:40:00,30.8,27.9,30.56,SSW,192,0.0,9.0,89,0.00,,,0.00,0,Wunderground v.1.15,2013-01-11 01:40:00,
2013-01-10 20:46:00,30.6,28.0,30.57,SSW,192,0.0,9.0,90,0.00,,,0.00,0,Wunderground v.1.15,2013-01-11 01:46:00,
2013-01-10 20:52:00,30.3,27.7,30.56,SSW,192,0.0,9.0,90,0.00,,,0.00,0,Wunderground v.1.15,2013-01-11 01:52:00,
2013-01-10 20:58:00,30.4,27.5,30.56,SSW,192,0.0,9.0,89,0.00,,,0.00,0,Wunderground v.1.15,2013-01-11 01:58:00,
2013-01-10 21:04:00,30.2,27.6,30.57,SSW,192,0.0,9.0,90,0.00,,,0.00,0,Wunderground v.1.15,2013-01-11 02:04:00,
2013-01-10 21:10:00,30.1,27.5,30.56,SSW,192,0.0,9.0,90,0.00,,,0.00,0,Wunderground v.1.15,2013-01-11 02:10:00,
2013-01-10 21:16:00,30.1,27.5,30.56,SSW,192,0.0,9.0,90,0.00,,,0.00,0,Wunderground v.1.15,2013-01-11 02:16:00,
2013-01-10 21:22:00,30.0,27.4,30.57,SSW,192,0.0,9.0,90,0.00,,,0.00,0,Wunderground v.1.15,2013-01-11 02:22:00,
2013-01-10 21:28:00,29.9,27.6,30.56,SSW,192,0.0,9.0,91,0.00,,,0.00,0,Wunderground v.1.15,2013-01-11 02:28:00,
2013-01-10 21:34:00,30.1,27.8,30.56,SSW,192,0.0,9.0,91,0.00,,,0.00,0,Wunderground v.1.15,2013-01-11 02:34:00,
2013-01-10 21:40:00,30.0,27.7,30.56,SSW,192,0.0,9.0,91,0.00,,,0.00,0,Wunderground v.1.15,2013-01-11 02:40:00,
2013-01-10 21:46:00,30.1,27.8,30.55,SSW,192,0.0,9.0,91,0.00,,,0.00,0,Wunderground v.1.15,2013-01-11 02:46:00,
2013-01-10 21:52:00,30.1,27.8,30.55,SSW,192,0.0,9.0,91,0.00,,,0.00,0,Wunderground v.1.15,2013-01-11 02:52:00,
2013-01-10 21:58:00,30.1,27.8,30.55,SSW,192,0.0,9.0,91,0.00,,,0.00,0,Wunderground v.1.15,2013-01-11 02:58:00,
2013-01-10 22:04:00,30.1,27.8,30.54,SSW,192,0.0,9.0,91,0.00,,,0.00,0,Wunderground v.1.15,2013-01-11 03:04:00,
2013-01-10 22:10:00,30.2,27.9,30.54,SSW,192,0.0,9.0,91,0.00,,,0.00,0,Wunderground v.1.15,2013-01-11 03:10:00,
2013-01-10 22:16:00,30.4,28.1,30.53,SSW,192,0.0,9.0,91,0.00,,,0.00,0,Wunderground v.1.15,2013-01-11 03:16:00,
2013-01-10 22:22:00,30.6,28.3,30.52,SSW,192,0.0,9.0,91,0.00,,,0.00,0,Wunderground v.1.15,2013-01-11 03:22:00,
2013-01-10 22:28:00,31.4,28.5,30.51,ENE,61,0.0,9.0,89,0.00,,,0.00,0,Wunderground v.1.15,2013-01-11 03:28:00,
2013-01-10 22:34:00,31.3,28.2,30.51,ENE,57,0.0,9.0,88,0.00,,,0.00,0,Wunderground v.1.15,2013-01-11 03:34:00,
2013-01-10 22:40:00,30.8,28.2,30.50,ESE,104,0.0,9.0,90,0.00,,,0.00,0,Wunderground v.1.15,2013-01-11 03:40:00,
2013-01-10 22:46:00,30.9,28.0,30.50,ESE,105,0.0,9.0,89,0.00,,,0.00,0,Wunderground v.1.15,2013-01-11 03:46:00,
2013-01-10 22:52:00,31.0,28.1,30.50,ESE,105,0.0,9.0,89,0.00,,,0.00,0,Wunderground v.1.15,2013-01-11 03:52:00,
2013-01-10 22:58:00,31.5,28.6,30.49,East,83,0.0,9.0,89,0.00,,,0.00,0,Wunderground v.1.15,2013-01-11 03:58:00,
2013-01-10 23:04:00,32.5,28.8,30.50,South,180,0.0,9.0,86,0.00,,,0.00,0,Wunderground v.1.15,2013-01-11 04:04:00,
2013-01-10 23:10:00,32.3,28.6,30.50,South,180,0.0,9.0,86,0.00,,,0.00,0,Wunderground v.1.15,2013-01-11 04:10:00,
2013-01-10 23:16:00,32.1,28.4,30.50,South,180,0.0,9.0,86,0.00,,,0.00,0,Wunderground v.1.15,2013-01-11 04:16:00,
2013-01-10 23:22:00,32.5,28.5,30.50,South,180,0.0,9.0,85,0.00,,,0.00,0,Wunderground v.1.15,2013-01-11 04:22:00,
2013-01-10 23:28:00,32.6,28.6,30.50,South,175,0.0,9.0,85,0.00,,,0.00,0,Wunderground v.1.15,2013-01-11 04:28:00,
2013-01-10 23:34:00,32.5,28.8,30.50,SE,135,0.0,9.0,86,0.00,,,0.00,0,Wunderground v.1.15,2013-01-11 04:34:00,
2013-01-10 23:40:00,32.5,28.5,30.50,SE,135,0.0,9.0,85,0.00,,,0.00,0,Wunderground v.1.15,2013-01-11 04:40:00,
2013-01-10 23:46:00,32.7,28.7,30.50,SE,135,0.0,9.0,85,0.00,,,0.00,0,Wunderground v.1.15,2013-01-11 04:46:00,
2013-01-10 23:52:00,32.7,28.7,30.50,SE,135,0.0,9.0,85,0.00,,,0.00,0,Wunderground v.1.15,2013-01-11 04:52:00,
2013-01-10 23:58:00,32.9,28.9,30.49,SE,135,0.0,9.0,85,0.00,,,0.00,0,Wunderground v.1.15,2013-01-11 04:58:00,